{"data":{"norad_id":58072,"epoch":"2026-09-20T18:33:26.389440Z","epoch_age_seconds":114004,"freshness":"FRESH","line1":"1 58072U 23158X   26263.77322210  .00000249  00000+0  18587-4 0  9991","line2":"2 58072  43.0030   5.4645 0001532 272.6501  87.4176 15.27575583163407","mean_motion":15.27575583,"eccentricity":0.0001532,"inclination_deg":43.003,"raan_deg":5.4645,"arg_perigee_deg":272.6501,"mean_anomaly_deg":87.4176,"bstar":1.8587e-5,"rev_number":16340,"period_min":94.267021286894,"perigee_km":482.01118642238,"apogee_km":484.11345789469,"semimajor_km":6861.1993221585,"source":"CELESTRAK","updated_at":"2026-09-21T09:00:33.781081Z"}}